Погода в Романковцах

Украина / Черновицкая область     48°28′59″N   27°12′52″E
темп.,
°C
ветер,
м/с
пор.,
м/с
влажн.,
%
обл.,
%
осадки,
мм/ч
давл.,
гПа
погр.,
м
12 августа, пт
пт1200:00+17с378188 0.0 1019178
03:00+17ссз248885 0.4 1019106
06:00+15ссз3495100 0.1 101983
09:00+19с468293 0.4 1018392
12:00+21с4678100 0.1 1018505
15:00+21ссв597772 1.1 1017451
18:00+21св597456 0.0 1017519
21:00+18ссв379244 0.0 1017167
13 августа, сб
сб1300:00+17с339434 0.0 101649
03:00+17ссз3691100 0.0 1015160
06:00+17ссз4791100 0.0 1014211
09:00+20ссв4682100 0.0 1013430
12:00+26ссв455399 0.0 10111318
15:00+27с3453100 3.9 10101338
18:00+24сз3666100 0.1 1009165
21:00+21с41078100 0.1 1009184
14 августа, вс
вс1400:00+20ссв4880100 0.0 1008161
03:00+19сз3378100 0.0 100838
06:00+17с3389100 0.1 100836
09:00+21ссв5576100 0.6 1008414
12:00+22ссв3475100 3.9 1008365
15:00+27св3447100 3.9 10071255
18:00+28вюв4749100 0.0 10071629
21:00+19ююз1179100 0.3 100815
15 августа, пн
пн1500:00+18сз228352 0.3 100816
03:00+18ссв2280100 0.4 100718
06:00+18св2280100 0.5 100715
09:00+21ссв236499 1.3 1007202
12:00+27с1143100 0.0 1006846
15:00+30з2236100 0.0 10051775
18:00+30сз1236100 0.0 10051952
21:00+23сз225912 0.0 100615
16 августа, вт
вт1600:00+21з337054 0.0 100733
03:00+19ссз227844 0.0 100622
06:00+18з228125 0.1 100718
09:00+23з226140 0.2 1007273
12:00+28зюз23445 0.1 10071069
15:00+30з44385 0.1 10072092
18:00+30зюз34353 0.0 10062105
21:00+18юз4994100 7.3 1010231